[Date Prev][Date Next][Thread Prev][Thread Next] - [Date Index][Thread Index][Author Index]
2 Line ISS Keps 2-9
- Subject: [sarex] 2 Line ISS Keps 2-9
- From: "Dave Larsen PhD" <doc@xxxxxxxxxxx>
- Date: Sat, 9 Feb 2002 02:27:57 -0800
ISS
1 25544U 98067A 02040.20281380 .00071439 00000-0 84524-3 0 519
2 25544 51.6404 336.3324 0005881 54.7714 99.3465 15.60595840184064
----
Via the sarex mailing list at AMSAT.ORG courtesy of AMSAT-NA.
To unsubscribe, send "unsubscribe sarex" to Majordomo@amsat.org
AMSAT Home